Weather History for Pardubice, Czech Republic

Change the Weather History Date:

Wednesday, February 6, 2013

  Actual Average Record
Temperature  
Mean Temperature 32 °F -  
Max Temperature 39 °F - - ()
Min Temperature 24 °F - - ()
Degree Days  
Heating Degree Days 34    
Moisture  
Dew Point 24 °F    
Average Humidity 69    
Maximum Humidity 93    
Minimum Humidity 45    
Precipitation  
Precipitation 0.00 in - - ()
Sea Level Pressure  
Sea Level Pressure 29.51 in    
Wind  
Wind Speed 5 mph ()    
Max Wind Speed 14 mph    
Max Gust Speed -    
Visibility 6.2 miles    
Events      
T = Trace of Precipitation, MM = Missing Value Source: Averaged Metar Reports

Daily Weather History Graph

Daily Weather History Graph

Search for Another Location

Airport:

Trip Planner

Search our weather history database for the weather conditions in past years. The results will help you decide how hot, cold, wet, or windy it might be!

Date:

Astronomy

Feb. 06, 2013 Rise Set
Actual Time 7:22 AM CET 5:00 PM CET
Civil Twilight 6:48 AM CET 5:34 PM CET
Nautical Twilight 6:10 AM CET 6:12 PM CET
Astronomical Twilight 5:32 AM CET 6:50 PM CET
Moon 4:01 AM CET (2/6) 12:47 PM CET (2/6)
Length of Visible Light 10h 45m
Length of Day
9h 37m
Waning Crescent, 19% of the Moon is Illuminated
Feb 6
Waning Crescent
Feb 10
New
Feb 17
First Quarter
Feb 25
Full
Mar 4
Last Quarter

Hourly Weather History & Observations

Time (CET) Temp. Windchill Dew Point Humidity Pressure Visibility Wind Dir Wind Speed Gust Speed Precip Events Conditions
12:00 AM 37.4 °F 32.1 °F 28.4 °F 70% 29.50 in 6.2 mi SW 6.9 mph - N/A   Overcast
1:00 AM 35.6 °F 32.8 °F 28.4 °F 75% 29.50 in - SW 3.5 mph - N/A   Clear
3:00 AM 35.6 °F 30.7 °F 28.4 °F 75% 29.50 in 6.2 mi WSW 5.8 mph - N/A   Mostly Cloudy
4:00 AM 33.8 °F 29.6 °F 26.6 °F 75% 29.50 in - WSW 4.6 mph - N/A   Clear
5:00 AM 33.8 °F - 26.6 °F 75% 29.50 in 6.2 mi Variable 2.3 mph - N/A   Mostly Cloudy
6:00 AM 33.8 °F 29.6 °F 26.6 °F 75% 29.47 in 6.2 mi SW 4.6 mph - N/A   Mostly Cloudy
7:00 AM 33.8 °F - 26.6 °F 75% 29.47 in 6.2 mi Variable 2.3 mph - N/A   Mostly Cloudy
8:00 AM 33.8 °F 26.4 °F 28.4 °F 81% 29.50 in 6.2 mi West 9.2 mph - N/A   Overcast
9:00 AM 33.8 °F 25.3 °F 26.6 °F 75% 29.50 in 6.2 mi West 11.5 mph - N/A   Mostly Cloudy
10:00 AM 35.6 °F 27.1 °F 24.8 °F 65% 29.53 in 6.2 mi West 12.7 mph - N/A   Mostly Cloudy
11:00 AM 35.6 °F 26.6 °F 23.0 °F 60% 29.53 in 6.2 mi West 13.8 mph - N/A   Scattered Clouds
12:00 PM 37.4 °F 30.8 °F 21.2 °F 52% 29.50 in 6.2 mi WNW 9.2 mph - N/A   Scattered Clouds
1:00 PM 39.2 °F 33.0 °F 19.4 °F 45% 29.50 in 6.2 mi WSW 9.2 mph - N/A   Scattered Clouds
2:00 PM 37.4 °F 32.8 °F 17.6 °F 45% 29.50 in 6.2 mi NW 5.8 mph - N/A   Scattered Clouds
3:00 PM 37.4 °F - 19.4 °F 48% 29.50 in 6.2 mi Variable 1.2 mph - N/A   Scattered Clouds
4:00 PM 37.4 °F - 19.4 °F 48% 29.50 in 6.2 mi Variable 2.3 mph - N/A   Scattered Clouds
5:00 PM 35.6 °F - 19.4 °F 52% 29.50 in 6.2 mi Calm Calm - N/A   Partly Cloudy
6:00 PM 32.0 °F - 21.2 °F 64% 29.50 in - NE 1.2 mph - N/A   Clear
7:00 PM 28.4 °F - 23.0 °F 80% 29.53 in - Variable 1.2 mph - N/A   Clear
8:00 PM 28.4 °F - 23.0 °F 80% 29.53 in - Variable 1.2 mph - N/A   Clear
9:00 PM 26.6 °F - 23.0 °F 86% 29.53 in - Calm Calm - N/A   Clear
10:00 PM 24.8 °F - 23.0 °F 93% 29.53 in - Calm Calm - N/A   Clear
11:00 PM 24.8 °F - 23.0 °F 93% 29.56 in - Variable 1.2 mph - N/A   Clear